Home > Weather > Binghamton > Past weeks

Flag for USA Past Weather in Binghamton, New York, USA — Yesterday and Last 2 Weeks

Now
59 °F

Sunny.


Feels Like: 59 °F
Forecast: 60 / 82 °F
Wind: 5 mph from Northwest

Location: Binghamton Regional Airport

Current Time: May 31, 2016 at 8:14:48 AM

Latest Report: May 31, 2016 at 6:53 AM


Visibility: 10 mi

Pressure: 29.99 "Hg

Humidity: 93%

Dew Point: 57 °F

Location of BinghamtonLocation

Past Weather in Binghamton — Graph

°F

Binghamton Temperature Yesterday

Maximum temperature yesterday: 77 °F (at 12:53 PM)
Minimum temperature yesterday: 61 °F (at 5:53 AM)
Average temperature yesterday: 69 °F

High & Low Weather Summary for the Past Weeks

 TemperatureHumidityPressure
High87 °F (May 28, 3:53 PM)97% (May 28, 3:53 AM)30.30 "Hg (May 28, 3:53 AM)
Low30 °F (May 16, 5:53 AM)25% (May 24, 5:53 PM)29.87 "Hg (May 22, 3:53 AM)
Average62 °F60%30.05 "Hg
* Reported May 16 5:53 AM — May 31 5:53 AM, Binghamton, Weather by CustomWeather, © 2016

Note: Actual official high and low records may vary slightly from our data, if they occured in-between our weather recording intervals... More about our weather records

Advertising

Binghamton Weather History for the Previous 24 Hours

Scroll right to see more
 ConditionsComfort  
Time TempWeatherWind HumidityBarometerVisibility
5:53 AM
Tue, May 31
59 °FClear.No wind75%29.98 "Hg10 mi
4:53 AM59 °FClear.No wind69%29.97 "Hg10 mi
3:53 AM62 °FClear.3 mph67%29.97 "Hg10 mi
2:53 AM61 °FClear.7 mph67%29.97 "Hg10 mi
1:53 AM62 °FClear.7 mph86%29.96 "Hg10 mi
12:53 AM63 °FClear.5 mph97%29.96 "Hg10 mi
11:53 PM
Mon, May 30
64 °FClear.3 mph94%29.96 "Hg10 mi
10:53 PM65 °FClear.6 mph91%29.97 "Hg10 mi
9:53 PM66 °FClear.6 mph87%29.96 "Hg10 mi
8:53 PM68 °FSunny.6 mph84%29.94 "Hg10 mi
7:53 PM72 °FSunny.5 mph71%29.93 "Hg10 mi
6:53 PM73 °FPassing clouds.6 mph76%29.92 "Hg10 mi
5:53 PM75 °FSunny.3 mph69%29.92 "Hg10 mi
4:53 PM74 °FPassing clouds.8 mph69%29.92 "Hg10 mi
3:53 PM71 °FLight rain. Mostly cloudy.9 mph76%29.92 "Hg10 mi
2:53 PM77 °FPassing clouds.8 mph56%29.92 "Hg10 mi
1:53 PM77 °FBroken clouds.5 mph56%29.92 "Hg10 mi
12:53 PM77 °FPassing clouds.8 mph58%29.94 "Hg10 mi
11:53 AM75 °FPassing clouds.6 mph64%29.95 "Hg10 mi
10:53 AM73 °FSunny.8 mph64%29.96 "Hg10 mi
9:53 AM70 °FSunny.8 mph71%29.98 "Hg10 mi
8:53 AM67 °FPassing clouds.9 mph76%29.99 "Hg10 mi
Weather by CustomWeather, © 2016

See weather overviewHow to use our weather pages